Volver al catálogo

CZ-6A DEB

ActivoSSO
NORAD 54511·DEBRIS·🇨🇳 China

Lanzado Nov 11, 2022 desde Taiyuan Satellite Launch Center

Loading…

Próximos Pases (próximas 24 horas)

TLE

ActualizadoSource: Space-Track

Época: Sep 14, 2026, 08:55 UTC

1 54511U 22151JP  26257.37160812  .00000003  00000-0  31618-4 0  9993
2 54511  98.9180 224.0739 0129719 207.4672 151.9593 13.94940230195145

Sigue CZ-6A DEB en tiempo real con AllMySat

Download on the App Store